Location: Unspecified
(49.2170°N, 0.0000°E)
Time: 15:40:46
(UTC+00:00)

deb Explorer IX - Visible Passes

Search period start: 12 May 2021 00:00
Search period end: 22 May 2021 00:00
Orbit: 541 x 1098 km, 38.8° (Epoch: 11 May)

Date Brightness Start Highest point End Pass type
(mag) Time Alt. Az. Time Alt. Az. Time Alt. Az.
12 May ? 20:50:45 10° S 20:54:24 16° SSE 20:55:32 15° SE visible
12 May ? 22:35:24 10° SW 22:36:54 16° SW 22:36:54 16° SW visible
13 May ? 20:26:41 10° S 20:30:34 16° SSE 20:34:14 10° ESE visible
13 May ? 22:11:23 10° SW 22:15:40 26° S 22:15:40 26° S visible
14 May ? 21:47:23 10° SW 21:52:53 28° S 21:53:59 27° SSE visible
14 May ? 23:33:55 10° WSW 23:35:17 15° WSW 23:35:17 15° WSW visible
15 May ? 21:23:23 10° SW 21:29:03 29° S 21:31:56 20° SE visible
15 May ? 23:09:56 10° WSW 23:13:13 24° SW 23:13:13 24° SW visible
16 May ? 20:59:22 10° SW 21:05:12 30° S 21:09:37 14° ESE visible
16 May ? 22:45:56 10° WSW 22:50:53 29° SSW 22:50:53 29° SSW visible
17 May ? 20:35:21 10° SW 20:41:20 30° S 20:46:46 10° ESE visible
17 May ? 22:21:55 10° WSW 22:27:39 31° S 22:28:22 30° S visible
18 May ? 20:11:22 10° SW 20:17:27 31° S 20:23:03 10° ESE visible
18 May ? 21:57:55 10° WSW 22:03:48 31° S 22:05:45 26° SSE visible
18 May ? 23:45:36 10° WSW 23:46:59 14° WSW 23:46:59 14° WSW visible
19 May ? 21:33:54 10° WSW 21:39:57 32° S 21:43:03 21° SE visible
19 May ? 23:21:33 10° WSW 23:24:17 17° SW 23:24:17 17° SW visible
20 May ? 21:09:55 10° WSW 21:16:04 33° S 21:20:17 16° SE visible
20 May ? 22:57:31 10° WSW 23:01:32 20° SW 23:01:32 20° SW visible
21 May ? 20:45:55 10° WSW 20:52:11 33° S 20:57:30 12° SE visible
21 May ? 22:33:29 10° WSW 22:38:17 20° SSW 22:38:44 20° SSW visible
